Time,TemperatureF,DewpointF,PressureIn,WindDirection,WindDirectionDegrees,WindSpeedMPH,WindSpeedGustMPH,Humidity,HourlyPrecipIn,Conditions,Clouds,dailyrainin,SoftwareType,DateUTC
2013-10-22 01:12:00,25.0,18.0,29.90,North,-999,-999.0,-999.0,75,-99.99,,,-99.99,,2013-10-22 06:12:00,
2013-10-22 01:42:00,25.0,19.0,29.90,North,-999,-999.0,-999.0,77,-99.99,,,-99.99,,2013-10-22 06:42:00,
2013-10-22 01:53:00,24.0,18.0,29.93,North,-999,-999.0,-999.0,76,-99.99,,,-99.99,,2013-10-22 06:53:00,
2013-10-22 02:12:00,24.0,18.0,29.93,North,-999,-999.0,-999.0,77,-99.99,,,-99.99,,2013-10-22 07:12:00,
2013-10-22 02:22:00,24.0,18.0,29.93,North,-999,-999.0,-999.0,77,-99.99,,,-99.99,,2013-10-22 07:22:00,
2013-10-22 02:42:00,24.0,18.0,29.93,North,-999,-999.0,-999.0,77,-99.99,,,-99.99,,2013-10-22 07:42:00,
2013-10-22 02:52:00,24.0,18.0,29.93,North,-999,-999.0,-999.0,78,-99.99,,,-99.99,,2013-10-22 07:52:00,
2013-10-22 03:12:00,24.0,18.0,29.93,North,-999,-999.0,-999.0,78,-99.99,,,-99.99,,2013-10-22 08:12:00,
2013-10-22 03:22:00,24.0,18.0,29.96,North,-999,-999.0,-999.0,78,-99.99,,,-99.99,,2013-10-22 08:22:00,
2013-10-22 03:42:00,24.0,18.0,29.93,North,-999,-999.0,-999.0,79,-99.99,,,-99.99,,2013-10-22 08:42:00,
2013-10-22 03:52:00,24.0,18.0,29.93,North,-999,-999.0,-999.0,79,-99.99,,,-99.99,,2013-10-22 08:52:00,
2013-10-22 04:11:00,25.0,19.0,29.93,North,-999,-999.0,-999.0,79,-99.99,,,-99.99,,2013-10-22 09:11:00,
2013-10-22 04:22:00,24.0,18.0,29.93,North,-999,-999.0,-999.0,79,-99.99,,,-99.99,,2013-10-22 09:22:00,
2013-10-22 04:33:00,24.0,18.0,29.93,North,-999,-999.0,-999.0,79,-99.99,,,-99.99,,2013-10-22 09:33:00,
2013-10-22 04:43:00,24.0,18.0,29.93,North,-999,-999.0,-999.0,79,-99.99,,,-99.99,,2013-10-22 09:43:00,
2013-10-22 04:54:00,24.0,18.0,29.93,North,-999,-999.0,-999.0,79,-99.99,,,-99.99,,2013-10-22 09:54:00,
2013-10-22 05:13:00,24.0,19.0,29.93,North,-999,-999.0,-999.0,80,-99.99,,,-99.99,,2013-10-22 10:13:00,
2013-10-22 05:23:00,24.0,19.0,29.93,North,-999,-999.0,-999.0,81,-99.99,,,-99.99,,2013-10-22 10:23:00,
2013-10-22 05:43:00,24.0,19.0,29.93,North,-999,-999.0,-999.0,80,-99.99,,,-99.99,,2013-10-22 10:43:00,
2013-10-22 05:53:00,24.0,19.0,29.93,North,-999,-999.0,-999.0,80,-99.99,,,-99.99,,2013-10-22 10:53:00,
2013-10-22 06:12:00,23.0,18.0,29.93,North,-999,-999.0,-999.0,80,-99.99,,,-99.99,,2013-10-22 11:12:00,
2013-10-22 06:22:00,22.0,17.0,29.93,North,-999,-999.0,-999.0,80,-99.99,,,-99.99,,2013-10-22 11:22:00,
2013-10-22 06:42:00,22.0,17.0,29.93,North,-999,-999.0,-999.0,81,-99.99,,,-99.99,,2013-10-22 11:42:00,
2013-10-22 06:52:00,23.0,18.0,29.93,North,-999,-999.0,-999.0,82,-99.99,,,-99.99,,2013-10-22 11:52:00,
2013-10-22 07:11:00,23.0,18.0,29.93,North,-999,-999.0,-999.0,82,-99.99,,,-99.99,,2013-10-22 12:11:00,
2013-10-22 07:22:00,23.0,18.0,29.93,North,-999,-999.0,-999.0,82,-99.99,,,-99.99,,2013-10-22 12:22:00,
2013-10-22 07:42:00,23.0,19.0,29.93,North,-999,-999.0,-999.0,83,-99.99,,,-99.99,,2013-10-22 12:42:00,
2013-10-22 07:52:00,23.0,19.0,29.93,North,-999,-999.0,-999.0,83,-99.99,,,-99.99,,2013-10-22 12:52:00,
2013-10-22 08:12:00,24.0,20.0,29.93,North,-999,-999.0,-999.0,83,-99.99,,,-99.99,,2013-10-22 13:12:00,
2013-10-22 08:21:00,25.0,21.0,29.93,North,-999,-999.0,-999.0,83,-99.99,,,-99.99,,2013-10-22 13:21:00,
2013-10-22 08:42:00,26.0,21.0,29.93,North,-999,-999.0,-999.0,81,-99.99,,,-99.99,,2013-10-22 13:42:00,
2013-10-22 08:53:00,29.0,24.0,29.93,North,-999,-999.0,-999.0,80,-99.99,,,-99.99,,2013-10-22 13:53:00,
2013-10-22 09:11:00,30.0,24.0,29.93,North,-999,-999.0,-999.0,79,-99.99,,,-99.99,,2013-10-22 14:11:00,
2013-10-22 09:21:00,31.0,25.0,29.93,North,-999,-999.0,-999.0,77,-99.99,,,-99.99,,2013-10-22 14:21:00,
2013-10-22 09:32:00,31.0,25.0,29.93,North,-999,-999.0,-999.0,77,-99.99,,,-99.99,,2013-10-22 14:32:00,
2013-10-22 09:42:00,31.0,25.0,29.93,North,-999,-999.0,-999.0,77,-99.99,,,-99.99,,2013-10-22 14:42:00,
2013-10-22 09:52:00,34.0,27.0,29.96,North,-999,-999.0,-999.0,75,-99.99,,,-99.99,,2013-10-22 14:52:00,
2013-10-22 10:12:00,34.0,27.0,29.93,North,-999,-999.0,-999.0,74,-99.99,,,-99.99,,2013-10-22 15:12:00,
2013-10-22 10:22:00,35.0,27.0,29.93,North,-999,-999.0,-999.0,73,-99.99,,,-99.99,,2013-10-22 15:22:00,
2013-10-22 10:43:00,36.0,28.0,29.96,North,-999,-999.0,-999.0,71,-99.99,,,-99.99,,2013-10-22 15:43:00,
2013-10-22 10:54:00,37.0,29.0,29.96,North,-999,-999.0,-999.0,72,-99.99,,,-99.99,,2013-10-22 15:54:00,
2013-10-22 11:13:00,39.0,29.0,29.96,North,-999,-999.0,-999.0,68,-99.99,,,-99.99,,2013-10-22 16:13:00,
2013-10-22 11:23:00,39.0,29.0,29.96,North,-999,-999.0,-999.0,67,-99.99,,,-99.99,,2013-10-22 16:23:00,
2013-10-22 11:43:00,40.0,29.0,29.93,North,-999,-999.0,-999.0,65,-99.99,,,-99.99,,2013-10-22 16:43:00,
2013-10-22 11:53:00,41.0,30.0,29.93,North,-999,-999.0,-999.0,64,-99.99,,,-99.99,,2013-10-22 16:53:00,
2013-10-22 12:12:00,41.0,29.0,29.93,North,-999,-999.0,-999.0,63,-99.99,,,-99.99,,2013-10-22 17:12:00,
2013-10-22 12:22:00,41.0,29.0,29.93,North,-999,-999.0,-999.0,61,-99.99,,,-99.99,,2013-10-22 17:22:00,
2013-10-22 12:43:00,41.0,29.0,29.93,North,-999,-999.0,-999.0,61,-99.99,,,-99.99,,2013-10-22 17:43:00,
2013-10-22 12:52:00,44.0,30.0,29.93,North,-999,-999.0,-999.0,58,-99.99,,,-99.99,,2013-10-22 17:52:00,
2013-10-22 13:12:00,44.0,30.0,29.93,North,-999,-999.0,-999.0,57,-99.99,,,-99.99,,2013-10-22 18:12:00,
2013-10-22 13:22:00,45.0,29.0,29.93,North,-999,-999.0,-999.0,53,-99.99,,,-99.99,,2013-10-22 18:22:00,
2013-10-22 13:42:00,46.0,29.0,29.90,North,-999,-999.0,-999.0,52,-99.99,,,-99.99,,2013-10-22 18:42:00,
2013-10-22 13:52:00,46.0,29.0,29.90,North,-999,-999.0,-999.0,52,-99.99,,,-99.99,,2013-10-22 18:52:00,
2013-10-22 14:02:00,46.0,29.0,29.90,North,-999,-999.0,-999.0,52,-99.99,,,-99.99,,2013-10-22 19:02:00,
2013-10-22 14:12:00,46.0,29.0,29.90,North,-999,-999.0,-999.0,52,-99.99,,,-99.99,,2013-10-22 19:12:00,
2013-10-22 14:22:00,45.0,28.0,29.90,North,-999,-999.0,-999.0,51,-99.99,,,-99.99,,2013-10-22 19:22:00,
2013-10-22 14:42:00,47.0,29.0,29.90,North,-999,-999.0,-999.0,50,-99.99,,,-99.99,,2013-10-22 19:42:00,
2013-10-22 14:53:00,46.0,28.0,29.90,North,-999,-999.0,-999.0,49,-99.99,,,-99.99,,2013-10-22 19:53:00,
2013-10-22 15:11:00,44.0,27.0,29.90,North,-999,-999.0,-999.0,51,-99.99,,,-99.99,,2013-10-22 20:11:00,
2013-10-22 15:22:00,44.0,28.0,29.90,North,-999,-999.0,-999.0,52,-99.99,,,-99.99,,2013-10-22 20:22:00,
2013-10-22 15:43:00,44.0,28.0,29.90,North,-999,-999.0,-999.0,52,-99.99,,,-99.99,,2013-10-22 20:43:00,
2013-10-22 15:52:00,43.0,28.0,29.90,North,-999,-999.0,-999.0,54,-99.99,,,-99.99,,2013-10-22 20:52:00,
2013-10-22 16:12:00,42.0,26.0,29.90,North,-999,-999.0,-999.0,53,-99.99,,,-99.99,,2013-10-22 21:12:00,
2013-10-22 16:23:00,43.0,27.0,29.90,North,-999,-999.0,-999.0,52,-99.99,,,-99.99,,2013-10-22 21:23:00,
2013-10-22 16:44:00,42.0,27.0,29.93,North,-999,-999.0,-999.0,54,-99.99,,,-99.99,,2013-10-22 21:44:00,
2013-10-22 16:54:00,42.0,27.0,29.93,North,-999,-999.0,-999.0,54,-99.99,,,-99.99,,2013-10-22 21:54:00,
2013-10-22 17:14:00,42.0,26.0,29.93,North,-999,-999.0,-999.0,53,-99.99,,,-99.99,,2013-10-22 22:14:00,
2013-10-22 17:24:00,41.0,26.0,29.93,North,-999,-999.0,-999.0,54,-99.99,,,-99.99,,2013-10-22 22:24:00,
2013-10-22 17:44:00,41.0,26.0,29.93,North,-999,-999.0,-999.0,55,-99.99,,,-99.99,,2013-10-22 22:44:00,
2013-10-22 17:54:00,40.0,26.0,29.96,North,-999,-999.0,-999.0,56,-99.99,,,-99.99,,2013-10-22 22:54:00,
2013-10-22 18:03:00,40.0,26.0,29.96,North,-999,-999.0,-999.0,56,-99.99,,,-99.99,,2013-10-22 23:03:00,
2013-10-22 18:12:00,40.0,26.0,29.96,North,-999,-999.0,-999.0,56,-99.99,,,-99.99,,2013-10-22 23:12:00,
2013-10-22 18:23:00,39.0,25.0,29.96,North,-999,-999.0,-999.0,56,-99.99,,,-99.99,,2013-10-22 23:23:00,
2013-10-22 18:43:00,39.0,25.0,29.96,North,-999,-999.0,-999.0,57,-99.99,,,-99.99,,2013-10-22 23:43:00,
2013-10-22 18:53:00,39.0,25.0,29.96,North,-999,-999.0,-999.0,58,-99.99,,,-99.99,,2013-10-22 23:53:00,
2013-10-22 19:11:00,39.0,25.0,29.96,North,-999,-999.0,-999.0,58,-99.99,,,-99.99,,2013-10-23 00:11:00,
2013-10-22 19:22:00,39.0,25.0,29.96,North,-999,-999.0,-999.0,58,-99.99,,,-99.99,,2013-10-23 00:22:00,
2013-10-22 19:42:00,38.0,25.0,29.96,North,-999,-999.0,-999.0,58,-99.99,,,-99.99,,2013-10-23 00:42:00,
2013-10-22 19:52:00,38.0,25.0,29.96,North,-999,-999.0,-999.0,60,-99.99,,,-99.99,,2013-10-23 00:52:00,
2013-10-22 20:02:00,38.0,25.0,29.96,North,-999,-999.0,-999.0,60,-99.99,,,-99.99,,2013-10-23 01:02:00,
2013-10-22 20:11:00,38.0,25.0,29.96,North,-999,-999.0,-999.0,60,-99.99,,,-99.99,,2013-10-23 01:11:00,
2013-10-22 20:23:00,38.0,25.0,29.96,North,-999,-999.0,-999.0,60,-99.99,,,-99.99,,2013-10-23 01:23:00,
2013-10-22 20:42:00,36.0,25.0,29.96,North,-999,-999.0,-999.0,65,-99.99,,,-99.99,,2013-10-23 01:42:00,
2013-10-22 20:52:00,36.0,25.0,29.96,North,-999,-999.0,-999.0,65,-99.99,,,-99.99,,2013-10-23 01:52:00,
2013-10-22 21:11:00,34.0,24.0,29.96,North,-999,-999.0,-999.0,67,-99.99,,,-99.99,,2013-10-23 02:11:00,
2013-10-22 21:22:00,34.0,25.0,29.96,North,-999,-999.0,-999.0,68,-99.99,,,-99.99,,2013-10-23 02:22:00,
2013-10-22 21:42:00,35.0,26.0,29.96,North,-999,-999.0,-999.0,69,-99.99,,,-99.99,,2013-10-23 02:42:00,
2013-10-22 21:54:00,35.0,26.0,29.96,North,-999,-999.0,-999.0,70,-99.99,,,-99.99,,2013-10-23 02:54:00,
2013-10-22 22:12:00,36.0,27.0,29.96,North,-999,-999.0,-999.0,70,-99.99,,,-99.99,,2013-10-23 03:12:00,
2013-10-22 22:22:00,36.0,28.0,29.99,North,-999,-999.0,-999.0,71,-99.99,,,-99.99,,2013-10-23 03:22:00,
2013-10-22 22:44:00,36.0,28.0,29.99,North,-999,-999.0,-999.0,72,-99.99,,,-99.99,,2013-10-23 03:44:00,
2013-10-22 22:55:00,36.0,28.0,29.99,North,-999,-999.0,-999.0,72,-99.99,,,-99.99,,2013-10-23 03:55:00,
2013-10-22 23:14:00,35.0,27.0,29.99,North,-999,-999.0,-999.0,73,-99.99,,,-99.99,,2013-10-23 04:14:00,
2013-10-22 23:24:00,33.0,25.0,29.99,North,-999,-999.0,-999.0,73,-99.99,,,-99.99,,2013-10-23 04:24:00,
2013-10-22 23:45:00,33.0,26.0,29.99,North,-999,-999.0,-999.0,74,-99.99,,,-99.99,,2013-10-23 04:45:00,
2013-10-22 23:55:00,32.0,25.0,29.99,North,-999,-999.0,-999.0,75,-99.99,,,-99.99,,2013-10-23 04:55:00,